User: anonymous   Login
Location: Ammerl�gen
(47.2167°N, 9.6000°E)
Time: 19:25:04
(UTC+00:00)
Language:

NOAA 18 - Orbit

View from above orbital plane
View from above orbital plane
View from above satellite
View from above satellite

Ground track
Ground track

The orbit data is extracted from the following two-line orbital elements,

1 28654U 05018A   21341.48092963  .00000135  00000-0  96871-4 0  9995
2 28654  98.9749  46.8628 0014840 151.0480 209.1518 14.12664325852963
Epoch (UTC): 07 December 2021 11:32:32
Eccentricity: 0.0014840
inclination: 98.9749°
perigee height: 839 km
apogee height: 861 km
right ascension of ascending node: 46.8628°
argument of perigee: 151.0480°
revolutions per day: 14.12664325
mean anomaly at epoch: 209.1518°
orbit number at epoch: 85296

The dashed part of the orbit path shows where the satellite is in the earth's shadow,  

DLR